"Period start","avg(HW err(1)/warn(2) (#))","avg(Visibility (m))","avg(Weather code (#))","avg(Precip intensity (mm/h))","min(HW err(1)/warn(2) (#))","max(HW err(1)/warn(2) (#))","std(HW err(1)/warn(2) (#))","med(HW err(1)/warn(2) (#))","min(Visibility (m))","max(Visibility (m))","std(Visibility (m))","med(Visibility (m))","min(Weather code (#))","max(Weather code (#))","std(Weather code (#))","med(Weather code (#))","min(Precip intensity (mm/h))","max(Precip intensity (mm/h))","std(Precip intensity (mm/h))","med(Precip intensity (mm/h))"
2014-04-30 00:00:00,2,7302,56,0.00,2,2,0,2,5634,10898,1693,7048,10,71,20,71,0.00,0.00,0.00,0.00
2014-04-30 00:10:00,2,8195,47,0.05,2,2,0,2,4231,16484,3538,8052,10,71,27,56,0.00,0.45,0.13,0.00
2014-04-30 00:20:00,2,7202,71,0.06,2,2,0,2,5587,9590,1188,7320,71,71,0,71,0.00,0.40,0.12,0.00
2014-04-30 00:30:00,2,4099,65,0.07,2,2,0,2,2563,5837,929,3816,41,71,12,71,0.00,0.35,0.11,0.00
2014-04-30 00:40:00,2,3349,71,0.19,2,2,0,2,2624,4588,575,3212,71,71,0,71,0.00,0.90,0.26,0.10
2014-04-30 00:50:00,2,3574,59,0.21,2,2,0,2,2639,5020,672,3516,10,71,24,71,0.00,1.20,0.36,0.00
2014-04-30 01:00:00,2,5461,65,0.15,2,2,0,2,3043,8554,1857,4846,10,71,18,71,0.00,0.55,0.18,0.05
2014-04-30 01:10:00,2,8295,28,0.10,2,2,0,2,5410,11265,1961,8572,10,71,28,10,0.00,0.70,0.22,0.00
2014-04-30 01:20:00,2,6447,57,0.49,2,2,0,2,2689,10525,2413,6342,0,71,28,71,0.00,1.50,0.46,0.40
2014-04-30 01:30:00,2,3609,71,1.38,2,2,0,2,1064,15431,4056,2182,71,71,0,71,0.00,2.45,0.67,1.40
2014-04-30 01:40:00,2,2714,71,1.41,2,2,0,2,1437,5487,1079,2652,71,71,0,71,0.10,2.35,0.63,1.43
2014-04-30 01:50:00,2,2219,71,1.70,2,2,0,2,1124,3407,710,2114,71,71,0,71,0.85,2.70,0.62,1.48
2014-04-30 02:00:00,2,1858,71,2.76,2,2,0,2,1034,2763,618,1872,71,71,0,71,1.40,4.75,1.16,2.62
2014-04-30 02:10:00,2,2977,71,1.56,2,2,0,2,2189,4103,592,3118,71,71,0,71,0.55,2.95,0.66,1.45
2014-04-30 02:20:00,2,3647,71,1.66,2,2,0,2,2429,5006,955,3434,71,71,0,71,1.25,1.95,0.24,1.80
2014-04-30 02:30:00,2,4125,71,1.11,2,2,0,2,2875,5966,1037,3690,71,71,0,71,0.45,1.95,0.50,0.88
2014-04-30 02:40:00,2,4079,71,1.04,2,2,0,2,2101,7811,1547,4284,71,71,0,71,0.35,1.80,0.43,1.00
2014-04-30 02:50:00,2,4694,71,1.08,2,2,0,2,3428,6056,966,4853,71,71,0,71,0.55,2.15,0.49,0.92
2014-04-30 03:00:00,2,4537,71,0.72,2,2,0,2,2775,6011,1154,4912,71,71,0,71,0.20,1.50,0.38,0.62
2014-04-30 03:10:00,2,4716,71,0.77,2,2,0,2,3607,6568,929,4588,71,71,0,71,0.50,1.15,0.18,0.78
2014-04-30 03:20:00,2,6756,71,0.53,2,2,0,2,3361,9572,1798,6721,71,71,0,71,0.20,0.95,0.24,0.50
2014-04-30 03:30:00,2,6304,71,0.72,2,2,0,2,4536,8359,1117,5903,71,71,0,71,0.20,1.55,0.49,0.53
2014-04-30 03:40:00,2,4760,71,0.91,2,2,0,2,2041,7907,2121,4331,71,71,0,71,0.55,1.40,0.21,0.90
2014-04-30 03:50:00,2,6719,71,0.60,2,2,0,2,3612,9460,1858,6805,71,71,0,71,0.10,1.15,0.37,0.57
2014-04-30 04:00:00,2,7554,71,0.70,2,2,0,2,4435,13444,2885,7010,71,71,0,71,0.25,1.30,0.29,0.75
2014-04-30 04:10:00,2,7448,71,0.53,2,2,0,2,4130,12215,2584,6851,71,71,0,71,0.05,1.35,0.37,0.42
2014-04-30 04:20:00,2,7898,71,0.61,2,2,0,2,4249,11416,1929,8440,71,71,0,71,0.10,1.05,0.31,0.62
2014-04-30 04:30:00,2,7021,71,0.72,2,2,0,2,4307,12975,2422,6898,71,71,0,71,0.35,1.45,0.32,0.70
2014-04-30 04:40:00,2,6578,71,0.66,2,2,0,2,4762,9763,1943,5394,71,71,0,71,0.10,1.05,0.30,0.75
2014-04-30 04:50:00,2,8809,71,0.45,2,2,0,2,4744,16741,3341,8236,71,71,0,71,0.20,0.75,0.19,0.42
2014-04-30 05:00:00,2,6224,71,0.61,2,2,0,2,4389,7870,1149,6240,71,71,0,71,0.10,0.95,0.28,0.70
2014-04-30 05:10:00,2,6594,71,0.53,2,2,0,2,4355,9799,1962,5792,71,71,0,71,0.20,1.20,0.26,0.53
2014-04-30 05:20:00,2,7991,71,0.51,2,2,0,2,6409,10238,1218,8050,71,71,0,71,0.10,1.10,0.27,0.47
2014-04-30 05:30:00,2,8862,71,0.44,2,2,0,2,7330,11113,1261,8439,71,71,0,71,0.15,0.75,0.17,0.50
2014-04-30 05:40:00,2,14298,71,0.20,2,2,0,2,3206,26446,6450,12172,71,71,0,71,0.00,0.55,0.17,0.15
2014-04-30 05:50:00,2,17795,71,0.14,2,2,0,2,10507,24490,4222,19202,71,71,0,71,0.00,0.60,0.16,0.10
2014-04-30 06:00:00,2,11878,71,0.44,2,2,0,2,4660,24031,6628,9928,71,71,0,71,0.05,1.10,0.31,0.40
2014-04-30 06:10:00,2,9226,71,0.39,2,2,0,2,4253,15260,3470,8848,71,71,0,71,0.05,0.85,0.27,0.35
2014-04-30 06:20:00,2,8870,71,0.41,2,2,0,2,4114,16561,3977,8470,71,71,0,71,0.15,0.70,0.18,0.38
2014-04-30 06:30:00,2,7214,71,0.48,2,2,0,2,4736,14243,3020,5528,71,71,0,71,0.30,0.80,0.15,0.50
2014-04-30 06:40:00,2,12196,71,0.20,2,2,0,2,4571,22238,4724,12270,71,71,0,71,0.00,0.35,0.10,0.20
2014-04-30 06:50:00,2,16184,71,0.23,2,2,0,2,5753,26502,6839,14042,71,71,0,71,0.05,0.65,0.22,0.10
2014-04-30 07:00:00,2,14971,71,0.24,2,2,0,2,7365,30648,6676,12876,71,71,0,71,0.00,0.80,0.28,0.10
2014-04-30 07:10:00,2,20291,71,0.16,2,2,0,2,7447,29829,6367,19937,71,71,0,71,0.00,0.50,0.18,0.10
2014-04-30 07:20:00,2,26432,71,0.07,2,2,0,2,15433,39658,7517,25723,71,71,0,71,0.00,0.40,0.12,0.03
2014-04-30 07:30:00,2,22350,71,0.21,2,2,0,2,7463,40745,9645,23285,71,71,0,71,0.00,0.70,0.24,0.10
2014-04-30 07:40:00,2,15759,71,0.17,2,2,0,2,10190,24936,4760,13852,71,71,0,71,0.00,0.50,0.16,0.10
2014-04-30 07:50:00,2,15483,71,0.23,2,2,0,2,11304,21165,3218,15531,71,71,0,71,0.00,0.55,0.18,0.20
2014-04-30 08:00:00,2,16984,71,0.22,2,2,0,2,11122,26924,5053,16580,71,71,0,71,0.00,0.45,0.15,0.25
2014-04-30 08:10:00,2,16447,71,0.15,2,2,0,2,8623,30838,7875,13046,71,71,0,71,0.00,0.30,0.11,0.15
2014-04-30 08:20:00,2,13083,71,0.24,2,2,0,2,7126,19200,3354,13194,71,71,0,71,0.05,0.40,0.12,0.25
2014-04-30 08:30:00,2,19252,66,0.06,2,2,0,2,13518,38684,7405,16300,41,77,13,71,0.00,0.20,0.08,0.00
2014-04-30 08:40:00,2,43157,59,0.04,2,2,0,2,35777,50000,4291,42934,54,77,7,54,0.00,0.15,0.05,0.05
2014-04-30 08:50:00,2,43374,13,0.00,2,2,0,2,28114,50000,6582,44658,0,64,26,0,0.00,0.00,0.00,0.00
2014-04-30 09:00:00,2,46660,0,0.00,2,2,0,2,40798,50000,3048,47162,0,0,0,0,0.00,0.00,0.00,0.00
2014-04-30 09:10:00,2,28947,28,0.03,2,2,0,2,15143,49778,11146,28020,0,71,35,0,0.00,0.15,0.05,0.00
2014-04-30 09:20:00,2,9309,74,0.17,2,2,0,2,6816,13974,2147,8668,71,77,3,74,0.05,0.35,0.10,0.17
2014-04-30 09:30:00,2,15232,60,0.07,2,2,0,2,9733,19734,3185,15012,41,77,15,71,0.00,0.15,0.04,0.05
2014-04-30 09:40:00,2,11807,70,0.10,2,2,0,2,9090,18115,2606,11600,41,77,10,71,0.00,0.25,0.07,0.08
2014-04-30 09:50:00,2,27750,68,0.07,2,2,0,2,17321,37441,6877,25617,41,77,10,71,0.00,0.40,0.12,0.03
2014-04-30 10:00:00,2,36168,24,0.01,2,2,0,2,23283,50000,9690,37424,0,64,29,0,0.00,0.05,0.02,0.00
2014-04-30 10:10:00,2,47708,0,0.00,2,2,0,2,43086,50000,2659,48748,0,0,0,0,0.00,0.00,0.00,0.00
2014-04-30 10:20:00,2,46118,0,0.00,2,2,0,2,39958,50000,3112,46734,0,0,0,0,0.00,0.00,0.00,0.00
2014-04-30 10:30:00,2,45245,0,0.00,2,2,0,2,35428,50000,4547,45692,0,0,0,0,0.00,0.00,0.00,0.00
2014-04-30 10:40:00,2,49532,0,0.00,2,2,0,2,46535,50000,1063,50000,0,0,0,0,0.00,0.00,0.00,0.00
2014-04-30 10:50:00,2,48076,0,0.00,2,2,0,2,41204,50000,2735,49632,0,0,0,0,0.00,0.00,0.00,0.00
2014-04-30 11:00:00,2,49264,0,0.00,2,2,0,2,47762,50000,904,49778,0,0,0,0,0.00,0.00,0.00,0.00
2014-04-30 11:10:00,2,47181,0,0.00,2,2,0,2,41217,50000,3032,48196,0,0,0,0,0.00,0.00,0.00,0.00
2014-04-30 11:20:00,2,49423,0,0.00,2,2,0,2,47183,50000,1007,50000,0,0,0,0,0.00,0.00,0.00,0.00
2014-04-30 11:30:00,2,49979,0,0.00,2,2,0,2,49791,50000,63,50000,0,0,0,0,0.00,0.00,0.00,0.00
2014-04-30 11:40:00,2,49811,0,0.00,2,2,0,2,48107,50000,568,50000,0,0,0,0,0.00,0.00,0.00,0.00
2014-04-30 11:50:00,2,49096,0,0.00,2,2,0,2,46723,50000,1163,49844,0,0,0,0,0.00,0.00,0.00,0.00
2014-04-30 12:00:00,2,41127,14,0.01,2,2,0,2,20863,50000,9366,44213,0,71,28,0,0.00,0.05,0.02,0.00
2014-04-30 12:10:00,2,44266,28,0.01,2,2,0,2,30897,50000,5743,45984,0,71,35,0,0.00,0.15,0.05,0.00
2014-04-30 12:20:00,2,43333,30,0.03,2,2,0,2,29074,50000,6882,45698,0,77,36,0,0.00,0.25,0.08,0.00
2014-04-30 12:30:00,2,30946,74,0.03,2,2,0,2,27141,35014,2414,30866,71,77,3,74,0.00,0.10,0.03,0.03
2014-04-30 12:40:00,2,32883,77,0.06,2,2,0,2,24867,40456,5292,33769,77,77,0,77,0.00,0.10,0.03,0.05
2014-04-30 12:50:00,2,24191,72,0.07,2,2,0,2,17214,30320,4666,24262,71,77,2,71,0.00,0.40,0.12,0.03
2014-04-30 13:00:00,2,21582,71,0.17,2,2,0,2,9146,34509,6638,21662,71,71,0,71,0.00,0.40,0.14,0.15
2014-04-30 13:10:00,2,23812,71,0.13,2,2,0,2,19344,32899,4026,24904,71,71,0,71,0.00,0.30,0.09,0.10
2014-04-30 13:20:00,2,20647,71,0.16,2,2,0,2,14105,29569,4903,21034,71,71,0,71,0.00,0.35,0.12,0.17
2014-04-30 13:30:00,2,13086,71,0.43,2,2,0,2,10738,15701,1388,13174,71,71,0,71,0.05,0.75,0.20,0.42
2014-04-30 13:40:00,2,22500,71,0.07,2,2,0,2,15306,28040,4490,23258,71,71,0,71,0.00,0.25,0.08,0.05
2014-04-30 13:50:00,2,21141,71,0.12,2,2,0,2,9170,32643,6830,19812,71,71,0,71,0.00,0.35,0.12,0.08
2014-04-30 14:00:00,2,26396,71,0.10,2,2,0,2,14125,40031,8721,27038,71,71,0,71,0.00,0.40,0.11,0.08
2014-04-30 14:10:00,2,40506,54,0.05,2,2,0,2,14582,50000,10644,42539,0,71,28,71,0.00,0.40,0.12,0.00
2014-04-30 14:20:00,2,47844,0,0.00,2,2,0,2,39215,50000,3242,49106,0,0,0,0,0.00,0.00,0.00,0.00
2014-04-30 14:30:00,2,44199,60,0.01,2,2,0,2,32209,50000,5949,45685,0,77,30,77,0.00,0.05,0.02,0.00
2014-04-30 14:40:00,2,48986,62,0.00,2,2,0,2,46156,50000,1335,50000,0,77,31,77,0.00,0.00,0.00,0.00
2014-04-30 14:50:00,2,49934,0,0.00,2,2,0,2,49344,50000,197,50000,0,0,0,0,0.00,0.00,0.00,0.00
2014-04-30 15:00:00,2,50000,0,0.00,2,2,0,2,50000,50000,0,50000,0,0,0,0,0.00,0.00,0.00,0.00
2014-04-30 15:10:00,2,50000,0,0.00,2,2,0,2,50000,50000,0,50000,0,0,0,0,0.00,0.00,0.00,0.00
2014-04-30 15:20:00,2,27030,0,0.00,2,2,0,2,13886,50000,15531,15997,0,0,0,0,0.00,0.00,0.00,0.00
2014-04-30 15:30:00,2,8953,2,0.00,2,2,0,2,6244,16223,2722,8330,0,10,4,0,0.00,0.00,0.00,0.00
2014-04-30 15:40:00,2,7748,10,0.00,2,2,0,2,6232,9733,1048,7559,10,10,0,10,0.00,0.00,0.00,0.00
2014-04-30 15:50:00,2,9784,9,0.00,2,2,0,2,6973,13658,2153,9214,0,10,3,10,0.00,0.00,0.00,0.00
2014-04-30 16:00:00,2,10727,0,0.00,2,2,0,2,5075,17880,4118,10861,0,0,0,0,0.00,0.00,0.00,0.00
2014-04-30 16:10:00,2,6690,10,0.00,2,2,0,2,5083,8578,973,6682,10,10,0,10,0.00,0.00,0.00,0.00
2014-04-30 16:20:00,2,8128,10,0.00,2,2,0,2,7229,9869,725,8068,10,10,0,10,0.00,0.00,0.00,0.00
2014-04-30 16:30:00,2,11129,2,0.00,2,2,0,2,8614,12586,1086,11054,0,10,4,0,0.00,0.00,0.00,0.00
2014-04-30 16:40:00,2,7104,4,0.00,2,2,0,2,4136,9619,1584,7352,0,10,5,0,0.00,0.00,0.00,0.00
2014-04-30 16:50:00,2,9513,9,0.00,2,2,0,2,7407,13769,1875,9063,0,10,3,10,0.00,0.00,0.00,0.00
2014-04-30 17:00:00,2,34834,0,0.00,2,2,0,2,13185,44625,9698,38396,0,0,0,0,0.00,0.00,0.00,0.00
2014-04-30 17:10:00,2,48155,0,0.00,2,2,0,2,43810,50000,2554,50000,0,0,0,0,0.00,0.00,0.00,0.00
2014-04-30 17:20:00,2,42201,0,0.00,2,2,0,2,32654,46599,3803,43416,0,0,0,0,0.00,0.00,0.00,0.00
2014-04-30 17:30:00,2,45465,44,0.00,2,2,0,2,33244,50000,5461,48735,0,78,36,71,0.00,0.00,0.00,0.00
2014-04-30 17:40:00,2,42313,78,0.01,2,2,0,2,34795,49078,4080,42476,77,78,0,78,0.00,0.05,0.02,0.00
2014-04-30 17:50:00,2,41719,78,0.01,2,2,0,2,30698,48906,5851,42320,77,78,0,78,0.00,0.05,0.02,0.00
2014-04-30 18:00:00,2,40075,31,0.00,2,2,0,2,32018,50000,4944,38038,0,78,38,0,0.00,0.00,0.00,0.00
2014-04-30 18:10:00,2,32507,53,0.01,2,2,0,2,18952,41995,6564,33601,0,78,35,74,0.00,0.15,0.05,0.00
2014-04-30 18:20:00,2,24822,72,0.01,2,2,0,2,16093,30506,3986,24973,71,78,2,71,0.00,0.10,0.03,0.00
2014-04-30 18:30:00,2,22634,71,0.04,2,2,0,2,13625,29133,4748,22702,71,71,0,71,0.00,0.15,0.05,0.00
2014-04-30 18:40:00,2,23988,71,0.03,2,2,0,2,13620,31006,5635,25544,71,71,0,71,0.00,0.10,0.04,0.00
2014-04-30 18:50:00,2,26468,71,0.04,2,2,0,2,20636,38025,5550,24926,71,71,0,71,0.00,0.10,0.04,0.03
2014-04-30 19:00:00,2,28140,76,0.02,2,2,0,2,13855,38559,8313,31212,71,78,3,78,0.00,0.15,0.05,0.00
2014-04-30 19:10:00,2,9307,71,0.34,2,2,0,2,4579,13501,2415,9441,71,71,0,71,0.05,1.20,0.32,0.23
2014-04-30 19:20:00,2,8767,71,0.56,2,2,0,2,4742,13251,2762,8807,71,71,0,71,0.15,1.35,0.37,0.43
2014-04-30 19:30:00,2,17515,71,0.21,2,2,0,2,10377,25489,5413,16535,71,71,0,71,0.00,0.70,0.20,0.15
2014-04-30 19:40:00,2,7307,71,0.60,2,2,0,2,3923,14649,3082,7824,71,71,0,71,0.30,1.00,0.25,0.62
2014-04-30 19:50:00,2,10155,71,0.42,2,2,0,2,5893,16955,3335,9195,71,71,0,71,0.00,1.05,0.28,0.42
2014-04-30 20:00:00,2,6891,71,0.30,2,2,0,2,3319,10423,2514,7047,71,71,0,71,0.05,0.75,0.22,0.20
2014-04-30 20:10:00,2,10698,71,0.38,2,2,0,2,4312,22073,5641,11822,71,71,0,71,0.00,1.20,0.38,0.20
2014-04-30 20:20:00,2,10219,71,0.48,2,2,0,2,6102,18851,3777,9572,71,71,0,71,0.00,1.30,0.39,0.35
2014-04-30 20:30:00,2,8320,71,0.57,2,2,0,2,4579,14385,3102,7623,71,71,0,71,0.05,1.10,0.39,0.53
2014-04-30 20:40:00,2,11683,71,0.31,2,2,0,2,8514,14309,1932,12522,71,71,0,71,0.00,0.90,0.27,0.25
2014-04-30 20:50:00,2,8304,71,0.35,2,2,0,2,3767,11619,2431,8017,71,71,0,71,0.10,0.95,0.25,0.25
2014-04-30 21:00:00,2,7243,71,0.59,2,2,0,2,3575,9356,1889,7956,71,71,0,71,0.15,1.60,0.42,0.60
2014-04-30 21:10:00,2,9613,71,0.37,2,2,0,2,3474,17563,3717,10724,71,71,0,71,0.00,1.00,0.37,0.25
2014-04-30 21:20:00,2,6530,71,0.79,2,2,0,2,3651,9707,1961,6964,71,71,0,71,0.10,1.80,0.54,0.68
2014-04-30 21:30:00,2,7932,71,0.56,2,2,0,2,4794,11748,2330,7165,71,71,0,71,0.10,1.35,0.44,0.40
2014-04-30 21:40:00,2,16141,71,0.04,2,2,0,2,11377,20304,2501,16156,71,71,0,71,0.00,0.25,0.08,0.00
2014-04-30 21:50:00,2,10836,71,0.27,2,2,0,2,5014,15552,2764,11300,71,71,0,71,0.00,0.70,0.25,0.20
2014-04-30 22:00:00,2,11254,71,0.39,2,2,0,2,5725,21593,4812,9370,71,71,0,71,0.00,1.25,0.35,0.35
2014-04-30 22:10:00,2,11405,71,0.29,2,2,0,2,5014,16598,3277,11568,71,71,0,71,0.05,1.05,0.28,0.20
2014-04-30 22:20:00,2,21212,62,0.03,2,2,0,2,17215,29167,3810,20346,41,71,14,71,0.00,0.20,0.06,0.00
2014-04-30 22:30:00,2,16830,36,0.01,2,2,0,2,12900,23185,2792,15693,0,71,36,36,0.00,0.10,0.03,0.00
2014-04-30 22:40:00,2,11726,64,0.20,2,2,0,2,8692,16985,2814,10806,0,71,21,71,0.00,0.65,0.20,0.20
2014-04-30 22:50:00,2,13659,71,0.20,2,2,0,2,5881,20295,4944,13326,71,71,0,71,0.00,0.80,0.24,0.10
2014-04-30 23:00:00,2,24249,14,0.00,2,2,0,2,20437,29884,3071,22690,0,71,28,0,0.00,0.00,0.00,0.00
2014-04-30 23:10:00,2,18757,30,0.00,2,2,0,2,12457,27796,3916,18333,0,77,36,0,0.00,0.00,0.00,0.00
2014-04-30 23:20:00,2,16365,75,0.04,2,2,0,2,9929,21611,3383,16105,71,77,3,77,0.00,0.20,0.08,0.00
2014-04-30 23:30:00,2,16506,36,0.02,2,2,0,2,10049,24090,4001,15674,0,71,36,36,0.00,0.20,0.06,0.00
2014-04-30 23:40:00,2,18688,14,0.00,2,2,0,2,13648,23065,3006,18970,0,71,28,0,0.00,0.00,0.00,0.00
2014-04-30 23:50:00,2,16615,28,0.10,2,2,0,2,9496,24475,5036,17252,0,71,35,0,0.00,0.55,0.19,0.00
